Aérodrome :
LOGIN :

S'inscrire | Disclaimer

   EN    FR    IT 

 










Légende :    VFR   VFR Marginal   IFR   IFR Intensif   IFR Très Intensif
Visi : 
Plafond : 
>= 8 km
>= 3000ft
5 à 8 km
1000 à 3000 ft
1500m à 5 km
500 à 1000 ft
800 à 1500m
200 à 500 ft
< 800m
< 200 ft
Symboles :   Orages  Brouillard  Fortes neiges  Fortes précipitations  Vent > 20 kt
SIGMETs :   Divers  Orages  Givrage  Turbulence  Onde Orograph.  Cendres Volcan.






- Altitude de l'aérodrome : 1830 ft


EBLB - Butgenbach Elsenborn

DERNIER METAR :
  • 100325Z AUTO 20013G27KT 9999 -RA BKN067/// BKN130/// 16/09 Q1002 BLU

METARs EXPIRÉS :
  • 100255Z AUTO 21013G26KT 9999 SCT069/// BKN093/// 17/07 Q1002 BLU
  • 100225Z AUTO 19009KT 9999 BKN074/// 17/08 Q1002 BLU
  • 100155Z AUTO 20010KT 9999 OVC073/// 16/08 Q1002 BLU
  • 100125Z AUTO 20011KT 9999 OVC072/// 16/08 Q1002 BLU
  • 100055Z AUTO 21014G30KT 9999 -RA OVC075/// 17/08 Q1003 BLU

Prévision TAF périmée.



MET'MAP, la Météo Aéronautique d'un coup d'oeil ! - Copyright ORBIFLY Décembre 2007 - Disclaimer

ORBIFLY MET'MAP TEAM :

Programmation & Développement : Alexandra Zaïnal
Sur une idée originale de : Baudouin d'Aumeries
Assistance à la programmation : Marc-Olivier Méhu
Soutien technique & logistique : Manuel Goepfert

Contact : metmap@orbifly.com




SOURCES & CREDITS :

   NOAA